Regional Weather Roundup
Issued by NWS

Home | Current Version | Previous Version | Graphics & Text | Print | Product List | Glossary On
Versions: 1 2 3 4 5 6 7 8 9 10 11 12 13 14 15 16 17 18 19 20 21 22 23 24 25 26 27 28 29 30 31 32 33 34 35 36 37 38 39 40 41 42 43 44 45 46 47 48 49 50
000
ASUS45 KTFX 061719
RWRMT
MONTANA HOURLY WEATHER ROUNDUP
NATIONAL WEATHER SERVICE GREAT FALLS MT
1019 AM MST FRI MAR 6 2015

NOTE: "FAIR" INDICATES FEW OR NO CLOUDS BELOW 12000 FEET WITH NO
SIGNIFICANT WEATHER AND/OR OBSTRUCTIONS TO VISIBILITY.

* THESE STATIONS ARE NOT UNDER NWS QUALITY CONTROL. THEY DO NOT
   REPORT WEATHER SUCH AS PRECIPITATION OR FOG.

MTZ001>007-043-061800-
WEST OF THE DIVIDE
CITY           SKY/WX    TMP DP  RH WIND       PRES   REMARKS
KALISPELL      PTSUNNY   28  21  75 CALM      30.36R
MISSOULA       SUNNY     36  21  54 CALM      30.40S
BUTTE          PTCLDY    39  16  39 NE7       30.34S WCI  34
MULLAN PASS    SUNNY     36  16  44 SW6       30.34R WCI  31
* ANACONDA     SUNNY     43  16  34 S7         N/A
* ESSEX        N/A       27  19  72 NW1        N/A
* EUREKA APT   CLOUDY    37  23  57 W3        30.33R
* HAMILTON APT SUNNY     45  18  34 S10       30.37S
* LIBBY APT    PTCLDY    34  21  59 CALM      30.37R
* LINCOLN      N/A       35  16  46 S4         N/A
* LOOKOUT PASS N/A       40  19  43 E1G6       N/A
* POLSON       N/A       39  23  53 S2         N/A
* RONAN APT    PTCLDY    39  28  65 N/A        N/A
* SEELEY LAKE  N/A       21  14  74 S2         N/A
* THOMP F APT  SUNNY     34  15  46 SW1        N/A
* YAAK HILL    N/A       25  22  88 N/A        N/A
$$

MTZ008-052>055-061800-
SOUTHWEST MONTANA
CITY           SKY/WX    TMP DP  RH WIND       PRES   REMARKS
BOZEMAN        CLOUDY    41  19  41 CALM      30.31S
DILLON         PTSUNNY   46  12  25 SW20      30.33S
* W YELLOWSTON PTCLDY    18  10  71 NE2        N/A
* THREE FORKS  CLOUDY    39  19  45 N/A        N/A
* BOULDER HILL N/A       40  12  32 SE2G11     N/A
* MONIDA PASS  N/A       28  16  61 SE9        N/A   WCI  19
* RAYNOLDS PAS N/A       20   4  50 S17G22     N/A   WCI   5
* WHITEHALL    N/A       43  14  31 SW8G15     N/A
* WISE RIVER   N/A       36  10  34 SW11G20    N/A   WCI  28
$$

MTZ009>010-012-014-046-048-049-054-061800-
EAST SLOPES AND CENTRAL MONTANA
CITY           SKY/WX    TMP DP  RH WIND       PRES   REMARKS
CUT BANK       CLOUDY    46  21  37 W26G36    30.11R
GREAT FALLS    PTSUNNY   52  19  27 SW25      30.15R
HELENA         CLOUDY    46  18  33 W15G23    30.27S
MALMSTROM AFB  PTSUNNY   50  19  29 SW23G36   30.16S
* CONRAD       CLOUDY    50  25  38 SW22G29    N/A
* DEARBORN     N/A       47  18  31 SE10G17    N/A
* EAST GLACIER N/A       37  19  48 W29        N/A   WCI  25
* MONARCH      N/A       40  15  36 W22G28     N/A   WCI  30
* PENDROY      N/A       44  23  43 W17G27     N/A
* ROGERS PASS  N/A       34  14  44 SE16G28    N/A   WCI  24
* SWEET GRASS  N/A       47  21  36 NW26G37    N/A
* WHITE SULPH  N/A       45  15  30 NW8G19     N/A
$$

MTZ011-013-016-021-035-040-045-047-050-051-061800-
NORTH CENTRAL MONTANA
CITY           SKY/WX    TMP DP  RH WIND       PRES   REMARKS
HAVRE          SUNNY     46  23  40 SW18G26   30.09R
LEWISTOWN      PTCLDY    45  27  49 W15       30.14R
* N BAR RANCH  SUNNY     46  18  33 CALM      30.13S
* CHINOOK      PTCLDY    50  21  32 W21G26    30.06S
* FORT BENTON  PTCLDY    54  19  25 SW18G28   30.13S
* CHESTER      N/A       46  21  37 W11G19     N/A
* DENTON       N/A       51  23  33 W24G33     N/A
* GEYSER       N/A       49  21  33 SW23G28    N/A
* JUDITH GAP   N/A       44  21  40 W15G26     N/A
* LOMA         N/A       50  21  32 SW19G30    N/A
$$

MTZ017>020-022>027-061-062-061800-
NORTHEAST MONTANA
CITY           SKY/WX    TMP DP  RH WIND       PRES   REMARKS
GLASGOW        PTCLDY    43  23  45 W8        30.03F
GLENDIVE       PTCLDY    48  21  34 SW13      30.06F
JORDAN         SUNNY     46  21  37 W22G29    30.08R
SIDNEY         PTSUNNY   39  21  48 S15       30.05F WCI  31
WOLF POINT     PTCLDY    43  25  49 W13       30.02F
* BEAVER HILL  N/A       38  20  48 S17G22     N/A   WCI  29
* CIRCLE       N/A       45  25  45 W12G19     N/A
* LINDSAY DVD  N/A       44  20  38 W14G20     N/A
* NAVAJO       N/A       36  23  59 W17        N/A   WCI  26
* PLENTYWOOD A PTSUNNY   36  25  64 S7        29.96F WCI  30
* POPLAR APT   PTCLDY    39  25  57 SW8       30.02F WCI  33
* SACO         N/A       42  23  47 W9G14      N/A
$$

MTZ028>042-056>058-061800-
SOUTHCENTRAL AND SOUTHEAST MONTANA
CITY           SKY/WX    TMP DP  RH WIND       PRES   REMARKS
BAKER          PTCLDY    45  19  35 W17       30.08F
BILLINGS       PTCLDY    54  16  22 W23G35    30.18S
LIVINGSTON     PTCLDY    50  16  26 SW26G44   30.23F
MILES CITY     PTCLDY    48  19  32 N/A       30.10S
* BIG TIMBER A PTCLDY    46  16  30 W24G33    30.22R
* FORSYTH APT  PTCLDY    50  18  28 W15G24    30.12F
* LAUREL APT   PTCLDY    43  16  34 S7         N/A
* ROUNDUP APT  PTCLDY    50  14  24 SW21G29    N/A
* ALZADA       N/A       47  18  31 SW12       N/A
* HYSHAM       N/A       45  16  31 W8G13      N/A
* REED POINT   N/A       53  21  29 W24G38     N/A
* ROSCOE HILL  N/A       48   6  18 NW3G8      N/A
$$

REGIONAL REPORTS...DAKOTAS
CITY           SKY/WX    TMP DP  RH WIND       PRES   REMARKS
WILLISTON      CLOUDY    30  21  69 S6        30.03F WCI  24
DICKINSON      CLOUDY    37  18  46 W9        30.04F WCI  30
BEACH          CLOUDY    41  19  41 W20       30.06F
CROSBY         PTCLDY    30  23  75 S16       29.99F WCI  19
TIOGA          PTCLDY    30  21  69 SW6       30.03F WCI  24
WATFORD CITY   SUNNY     32  23  69 SW7       30.03F WCI  25
BISMARCK       PTSUNNY   30  18  61 S3        30.13S
GRAND FORKS    SUNNY     30  14  51 NW5       30.08R WCI  25
FARGO          SUNNY     30  16  56 NW12      30.10R WCI  20
BUFFALO SD     PTSUNNY   48  18  30 W20       30.03S
RAPID CITY     PTSUNNY   50  19  29 VRB3      30.13F
$$

REGIONAL REPORTS...WYOMING/IDAHO/WASHINGTON
CITY           SKY/WX    TMP DP  RH WIND       PRES   REMARKS
GILLETTE       SUNNY     46  16  30 W15       30.18S
SHERIDAN       SUNNY     43  21  42 CALM      30.19R
CODY           PTCLDY    48  14  25 W16G30    30.22S
YELLOWSTONE LA PTCLDY    19   9  65 E3        30.41R
SALMON         SUNNY     34  18  52 CALM      30.48S
MULLAN PASS    SUNNY     36  16  44 SW6       30.34S WCI  31
SAND POINT     SUNNY     34  25  70 CALM      30.40R
SPOKANE        PTSUNNY   41  25  53 S7        30.37S
$$

REGIONAL REPORTS...ALBERTA
CITY           SKY/WX    TMP DP  RH WIND       PRES   REMARKS
CALGARY        SUNNY     52  18  26 W15       30.04R
LETHBRIDGE     PTSUNNY   50  21  32 W26G37    30.10R
MEDICINE HAT   PTSUNNY   50  25  38 W21G29    30.04R
EDMONTON       PTSUNNY   41  25  53 W15       30.00R
WATERTON GATE  N/A       39  19  45 SW13G20    N/A   WCI  31
CARDSTON       N/A       43  25  49 W22G32     N/A
MILK RIVER     N/A       46  27  48 W21G28     N/A
$$

REGIONAL REPORTS...SASKATCHEWAN
CITY           SKY/WX    TMP DP  RH WIND       PRES   REMARKS
SWIFT CURRENT  PTSUNNY   36  27  70 W17       29.94S WCI  26
MOOSE JAW      PTSUNNY   36  27  70 W21       29.89F WCI  25
REGINA         CLOUDY    27  23  85 S10       29.91F WCI  18
VAL MARIE      N/A       41  25  53 NW12       N/A
ASSINIBOIA     N/A       36  25  64 W16        N/A   WCI  26
CORONACH       N/A       37  25  62 W14        N/A   WCI  28

$$




USA.gov is the U.S. government's official web portal to all federal, state and local government web resources and services.